SCP
0 0 0 0 0 0 0 0 0 0 0 0 0 0 0 0 0 0 0 0 0 0 0 0 0 0 0 0 0 -0 -0 -0 -0 -0 -0 -0 -0 -0 -0 -0 0 0 0
0 0 0 0 0 0 0 0 0 0 0 0 0 0 0 0 0 0 0 0 0 0 0 0 0 0 -0 -0 -0 -0 -0 0 0 -0 -0 -0 -0 -0 -0 -0 0 0 0
0 0 0 0 0 0 0 0 0 0 0 0 0 0 0 0 0 0 0 0 0 0 0 0 0 -0 -0 0 0 -0 -0 0 0 0 -0 -0 -0 -0 -0 -0 0 0 0
0 0 0 0 0 0 0 0 0 0 0 0 0 0 0 0 0 0 0 0 0 0 0 0 0 -0 0 0 0 0 0 0 0 -0 -0 -0 -0 0 -0 0 0 0 0
0 0 0 0 0 0 0 0 0 0 0 0 0 0 0 0 0 0 0 0 0 0 0 0 0 0 0 0 0 0 0 0 0 -0 -0 -0 -0 -0 -0 -0 0 0 0
0 0 0 0 0 0 0 0 0 0 0 0 0 0 0 0 0 0 0 0 0 0 0 0 0 0 0 0 0 0 0 0 0 0 -0 -0 -0 -0 -0 0 0 0 0
0 0 0 0 0 0 0 0 0 0 0 0 0 0 0 0 0 0 0 0 0 0 0 0 0 0 0 0 0 0 0 0 0 0 -0 -0 -0 -0 -0 -0 0 0 0
0 0 0 0 0 0 0 0 0 0 0 0 0 0 0 0 0 0 0 0 0 0 0 0 0 0 0 0 0 0 0 0 -0 -0 -0 -0 -0 -0 -0 -0 0 0 0
0 0 0 0 0 0 0 0 0 0 0 0 0 0 0 0 -0 -0 0 0 0 0 0 0 0 0 0 0 0 0 0 -0 -0 0 -0 -0 0 0 -0 -0 0 0 0
0 0 0 0 0 0 0 0 0 0 0 0 0 0 0 0 -0 -0 0 0 0 0 0 0 0 0 0 0 0 0 -0 -0 -0 -0 -0 -0 0 -0 -0 -0 0 0 0
0 0 0 0 0 0 0 0 0 0 0 0 0 0 0 0 0 -0 0 0 0 0 0 -0 0 -0 0 0 0 0 -0 0 0 -0 -0 -0 -0 -0 -0 -0 0 0 0
0 0 0 0 0 0 0 0 0 0 0 0 0 0 0 0 0 0 -0 -0 0 0 -0 -0 -0 0 0 0 0 0 0 0 0 -0 -0 -0 -0 -0 -0 -0 0 0 0
0 0 0 0 0 0 0 0 0 0 0 0 0 0 0 0 0 -0 -0 -0 0 0 0 -0 -0 -0 -0 0 0 0 0 0 0 0 -0 -0 -0 -0 -0 -0 0 0 0
0 0 0 0 0 0 0 0 0 0 0 0 0 0 0 0 0 0 -0 -0 0 0 0 -0 -0 -0 0 0 0 0 0 0 0 0 0 0 -0 -0 0 0 0 0 0
0 0 0 0 0 0 0 0 0 0 0 0 0 0 0 0 0 -0 -0 -0 0 0 0 0 0 0 0 0 0 0 0 0 0 0 0 0 0 0 0 0 0 0 0
0 0 0 0 0 0 0 0 0 0 0 0 0 0 0 0 -0 -0 -0 0 -0 -0 0 0 0 0 0 0 0 0 0 0 0 -0 0 0 0 0 0 0 0 0 0
0 0 0 0 0 0 0 0 0 0 0 0 0 0 0 0 -0 -0 -0 0 -0 -0 0 -0 -0 0 0 0 0 0 0 0 0 0 0 0 0 0 0 0 0 0 0
0 0 0 0 0 0 0 0 0 0 0 0 0 0 0 0 -0 -0 -0 -0 -0 -0 -0 -0 -0 0 0 0 0 0 0 0 0 0 0 0 0 0 0 0 0 0 0
0 0 0 0 0 0 0 0 0 0 0 0 0 0 0 0 0 -0 -0 -0 -0 -0 -0 -0 -0 0 0 0 0 0 0 0 0 0 0 0 0 0 0 0 0 0 0
0 0 0 0 0 0 0 0 0 0 0 0 0 0 0 0 -0 0 -0 -0 -0 -0 0 -0 0 0 0 0 0 0 0 0 0 0 0 0 0 0 0 0 0 0 0
0 0 0 0 0 0 0 0 0 0 0 0 0 0 0 -0 -0 -0 -0 -0 0 -0 0 0 0 0 0 0 0 0 0 0 0 0 0 0 0 0 0 0 0 0 0
0 0 0 0 0 0 0 0 0 0 0 0 0 0 0 -0 -0 -0 -0 0 0 0 0 0 0 0 0 0 0 0 0 0 0 0 0 0 0 0 0 0 0 0 0
0 0 0 0 0 0 0 0 0 0 0 0 0 0 -0 -0 -0 -0 -0 0 0 -0 0 0 0 0 0 0 0 0 0 0 0 0 0 0 0 0 0 0 0 0 0
0 0 0 0 0 0 0 0 0 0 0 0 0 0 -0 -0 -0 -0 -0 0 0 0 -0 0 0 0 0 0 0 0 0 0 0 0 0 0 0 0 0 0 0 0 0
0 0 0 0 0 0 0 0 0 0 0 0 0 0 -0 -0 -0 -0 -0 0 0 0 -0 -0 0 0 0 0 0 0 0 0 0 0 0 0 0 0 0 0 0 0 0
0 0 0 0 0 0 0 0 0 0 0 0 0 0 -0 -0 -0 -0 -0 0 0 0 -0 0 -0 -0 -0 0 0 0 0 0 0 0 0 0 0 0 0 0 0 0 0
Wind_Speed_500mb
46 39 36 38 42 46 50 55 61 67 72 76 80 83 87 89 92 98 99 99 93 91 80 78 80 71 82 78 82 98 95 87 90 82 76 69 76 87 98 109 100 91 118
44 36 36 40 41 44 49 56 61 69 72 77 80 84 87 90 96 101 103 98 91 87 79 73 75 70 74 78 84 74 81 103 83 84 67 59 61 72 80 96 80 81 112
43 37 37 38 41 44 49 54 62 69 73 74 78 83 86 89 97 98 96 96 83 80 81 76 74 72 79 76 73 76 83 86 72 77 71 59 67 79 72 83 100 68 126
42 38 35 36 40 44 50 56 62 68 73 76 79 82 83 88 91 94 87 79 81 80 77 73 73 72 75 76 78 72 74 85 63 75 77 82 67 53 61 75 72 69 115
41 34 31 34 39 45 51 57 61 67 72 75 80 82 81 84 88 81 73 79 83 84 82 77 73 76 77 73 72 71 72 78 63 64 75 81 81 65 64 73 73 88 106
37 32 30 32 39 46 50 55 61 67 70 74 77 80 81 80 80 65 69 77 77 82 85 81 79 80 83 76 79 79 77 77 80 59 59 78 77 83 87 55 79 61 99
30 27 28 31 37 43 49 55 61 66 69 71 76 79 80 78 72 64 67 73 74 78 79 79 79 78 82 86 76 76 78 77 84 80 76 78 81 79 70 79 82 91 99
26 22 26 30 36 41 47 52 57 63 69 72 74 75 78 76 72 65 68 73 79 75 72 77 75 81 80 85 87 81 77 79 93 92 90 80 84 76 77 78 75 92 109
21 18 24 29 33 40 44 48 54 61 64 70 72 73 77 83 72 68 70 75 76 77 74 77 86 85 71 72 77 85 82 83 93 79 75 90 97 91 84 87 101 93 109
15 15 21 26 32 40 46 51 54 59 64 70 74 71 80 85 77 68 68 82 81 77 79 76 71 71 71 73 75 81 80 87 75 91 98 91 91 89 95 92 92 69 126
10 12 17 23 30 38 42 47 53 57 60 68 76 80 82 82 85 60 74 79 81 83 83 82 76 69 71 65 64 78 81 66 66 64 70 82 91 93 91 92 96 75 141
8 10 15 21 28 35 40 44 49 56 59 69 76 83 85 84 76 70 77 74 77 86 89 86 85 71 69 64 60 64 68 68 70 71 83 84 90 88 79 76 97 99 150
10 8 12 18 26 33 39 44 48 52 57 68 73 82 88 93 83 81 85 83 82 78 74 70 71 71 71 69 65 62 59 64 70 74 81 81 81 78 59 71 100 120 141
9 5 8 14 20 28 35 41 45 50 57 64 69 76 79 89 91 94 98 99 85 78 81 72 60 59 54 59 51 50 59 65 72 76 66 70 70 62 53 97 121 119 118
7 5 8 15 21 26 34 40 42 42 42 49 55 59 76 83 87 83 84 85 72 74 60 52 40 23 21 31 42 40 49 48 58 67 62 62 62 58 61 113 117 112 109
7 3 7 14 22 29 28 23 33 37 41 41 42 47 56 58 69 73 75 67 61 62 55 65 62 52 38 30 20 18 40 42 43 55 63 59 68 59 77 101 108 119 113
8 2 7 13 19 23 29 34 34 27 35 40 42 47 50 56 64 70 73 65 60 66 79 73 75 72 60 45 35 23 22 31 50 53 56 61 61 55 84 95 106 110 106
8 2 4 10 15 20 24 30 36 42 45 41 40 50 58 62 64 69 78 81 89 88 88 86 76 83 75 61 52 41 27 25 34 39 46 47 51 68 81 97 103 100 104
8 3 4 8 13 15 20 26 30 34 37 41 42 44 58 57 66 74 82 94 97 96 94 90 86 81 86 75 63 57 43 31 28 29 33 36 56 79 83 97 97 100 109
12 5 3 7 10 13 18 21 27 31 35 41 48 53 62 59 71 81 87 88 93 96 96 94 94 85 90 88 74 68 57 38 28 23 26 36 59 81 84 94 99 93 112
15 9 5 3 7 11 16 23 28 30 34 38 43 48 45 56 66 74 81 85 88 90 98 99 95 98 93 99 93 84 74 50 33 22 15 34 60 81 86 92 93 103 106
19 14 10 8 7 11 15 22 23 27 32 35 37 40 44 52 60 65 71 78 83 86 88 97 100 103 103 102 102 95 92 70 44 27 15 31 56 76 90 93 95 95 104
21 17 15 13 10 10 13 16 18 24 28 32 36 39 45 51 56 61 65 70 77 84 88 94 101 108 112 109 101 98 97 82 55 34 23 22 52 65 85 89 92 92 100
24 22 19 16 12 11 12 13 19 23 25 29 33 38 43 47 51 55 59 64 71 76 82 86 95 101 110 113 102 95 100 78 54 34 21 17 36 60 75 81 84 92 98
28 24 20 17 14 12 11 13 17 19 22 27 32 36 40 43 46 50 54 58 63 70 76 80 85 92 102 110 104 97 97 92 73 45 26 8 17 43 57 71 78 81 87
27 24 21 16 12 11 10 11 12 15 19 25 30 34 38 41 45 48 52 56 58 60 67 73 77 85 91 105 113 101 96 98 88 74 52 32 10 26 45 56 63 66 78
Wind_Direction_500mb
243 257 273 286 295 304 310 313 313 316 316 316 314 314 314 314 312 309 306 305 298 294 285 282 280 275 278 276 267 253 252 252 262 266 261 269 270 277 248 251 262 239 231
242 258 276 287 297 304 310 313 316 315 313 312 313 313 313 314 312 310 308 305 298 293 287 282 279 277 276 272 268 260 263 253 266 255 272 264 272 279 255 259 262 243 230
243 258 272 286 296 305 311 316 316 312 312 313 313 313 314 314 312 311 307 303 296 288 286 281 280 278 279 278 271 261 260 253 262 254 269 273 271 271 260 258 249 259 228
243 256 271 287 300 308 314 313 313 315 316 317 316 315 316 315 315 314 308 303 301 295 289 284 285 280 282 280 275 261 257 258 277 257 262 270 264 267 268 267 259 226 211
244 259 276 290 301 310 313 316 319 319 320 319 318 317 320 320 318 313 306 300 296 293 289 286 282 282 279 273 269 267 262 258 265 259 261 269 267 271 264 258 249 199 188
241 260 277 295 306 312 317 321 324 322 322 321 319 321 321 322 323 310 304 300 294 289 288 287 287 284 280 272 266 261 256 260 258 261 263 264 266 266 262 268 252 238 172
245 264 286 300 309 318 325 327 325 324 323 322 322 323 325 331 330 313 308 301 298 296 294 292 291 285 282 277 277 263 254 252 248 248 253 261 265 265 273 263 262 255 177
242 266 290 308 318 326 327 326 326 326 325 325 324 327 331 335 334 319 316 306 301 296 291 290 287 285 287 278 273 269 257 247 236 238 242 250 257 264 266 264 260 222 180
239 273 300 314 322 324 325 326 328 326 326 323 328 334 337 341 337 322 320 316 313 304 296 287 286 283 281 278 266 264 262 252 238 239 246 252 255 261 261 270 260 193 171
239 284 307 315 322 326 329 329 330 329 328 328 331 340 346 342 338 324 326 317 314 311 307 303 296 286 282 283 264 258 255 256 250 248 248 249 254 260 259 263 264 232 164
239 290 305 316 325 325 328 330 331 330 331 333 338 347 345 344 340 327 327 322 317 311 305 300 293 286 282 284 266 260 255 254 255 256 260 257 256 256 261 259 241 239 171
243 287 306 319 325 325 328 333 334 333 338 341 346 343 344 343 339 331 330 326 319 311 306 300 292 285 282 277 271 263 256 249 248 256 250 253 260 258 261 245 246 216 185
233 264 301 320 325 328 332 339 338 339 347 348 343 343 342 346 341 338 335 331 326 320 315 307 295 284 279 273 269 260 254 248 247 246 248 250 250 268 243 240 216 198 181
224 249 302 319 329 333 339 343 342 346 353 350 341 342 339 347 340 343 339 337 336 336 327 321 308 277 277 276 266 261 247 241 247 253 246 252 260 259 256 207 192 182 176
200 257 312 333 344 350 349 347 350 354 356 340 342 342 347 343 344 341 341 340 341 340 339 1 8 1 318 295 282 263 245 260 244 238 243 256 266 255 231 184 183 176 173
201 258 329 347 352 352 355 8 355 358 358 356 348 347 350 344 347 350 350 351 355 353 9 13 8 8 2 344 313 260 253 258 256 248 250 258 261 256 197 181 177 175 174
188 224 346 360 360 359 355 358 8 18 7 3 0 6 1 355 359 1 3 13 14 15 21 18 5 6 4 358 347 317 267 230 244 251 246 253 253 238 189 178 178 177 179
189 224 1 3 7 9 3 7 8 8 8 13 15 27 22 16 16 15 18 22 28 30 24 15 6 3 2 1 354 342 315 273 244 239 260 262 238 215 188 182 182 179 179
184 139 34 16 21 15 13 14 12 13 12 12 16 23 31 20 26 29 29 29 28 27 24 16 14 4 5 4 1 354 343 319 288 269 254 247 222 206 196 190 185 181 179
168 143 65 32 24 22 21 21 21 18 18 19 19 22 22 17 27 28 30 28 28 28 25 22 10 14 5 8 8 3 355 343 312 278 249 234 219 206 200 198 194 185 187
157 151 125 82 54 35 25 28 27 21 24 26 25 25 20 24 29 29 28 28 26 28 27 25 16 17 8 12 13 11 360 351 334 309 261 211 217 208 205 200 193 189 189
157 157 146 119 81 53 36 35 29 25 25 27 31 29 28 29 31 31 31 28 26 27 29 27 23 21 19 15 17 15 0 357 349 327 283 212 201 213 209 205 197 193 196
162 160 154 140 117 86 61 51 40 35 32 28 28 29 29 31 31 31 29 29 27 24 27 29 28 28 26 21 21 21 5 1 354 335 309 239 202 204 205 204 201 197 198
166 163 156 143 130 105 79 65 55 45 38 35 33 31 32 31 30 29 27 29 29 27 24 27 30 29 28 22 22 23 18 10 9 356 329 279 225 203 212 211 207 204 200
168 163 156 150 140 118 101 77 63 51 41 38 38 34 32 31 29 27 26 25 26 26 25 23 25 27 29 21 23 24 27 23 23 19 15 346 214 206 207 212 213 208 208
164 161 158 151 136 121 98 77 64 52 45 37 33 30 28 28 27 24 23 23 21 23 24 23 23 24 27 26 19 23 28 30 28 33 33 36 76 176 196 207 209 210 209
Wind_Speed_850mb
46 39 36 38 42 46 50 55 61 67 72 76 80 83 87 89 92 98 99 99 93 91 80 78 80 71 82 78 82 98 95 87 90 82 76 69 76 87 98 109 100 91 118
44 36 36 40 41 44 49 56 61 69 72 77 80 84 87 90 96 101 103 98 91 87 79 73 75 70 74 78 84 74 81 103 83 84 67 59 61 72 80 96 80 81 112
43 37 37 38 41 44 49 54 62 69 73 74 78 83 86 89 97 98 96 96 83 80 81 76 74 72 79 76 73 76 83 86 72 77 71 59 67 79 72 83 100 68 126
42 38 35 36 40 44 50 56 62 68 73 76 79 82 83 88 91 94 87 79 81 80 77 73 73 72 75 76 78 72 74 85 63 75 77 82 67 53 61 75 72 69 115
41 34 31 34 39 45 51 57 61 67 72 75 80 82 81 84 88 81 73 79 83 84 82 77 73 76 77 73 72 71 72 78 63 64 75 81 81 65 64 73 73 88 106
37 32 30 32 39 46 50 55 61 67 70 74 77 80 81 80 80 65 69 77 77 82 85 81 79 80 83 76 79 79 77 77 80 59 59 78 77 83 87 55 79 61 99
30 27 28 31 37 43 49 55 61 66 69 71 76 79 80 78 72 64 67 73 74 78 79 79 79 78 82 86 76 76 78 77 84 80 76 78 81 79 70 79 82 91 99
26 22 26 30 36 41 47 52 57 63 69 72 74 75 78 76 72 65 68 73 79 75 72 77 75 81 80 85 87 81 77 79 93 92 90 80 84 76 77 78 75 92 109
21 18 24 29 33 40 44 48 54 61 64 70 72 73 77 83 72 68 70 75 76 77 74 77 86 85 71 72 77 85 82 83 93 79 75 90 97 91 84 87 101 93 109
15 15 21 26 32 40 46 51 54 59 64 70 74 71 80 85 77 68 68 82 81 77 79 76 71 71 71 73 75 81 80 87 75 91 98 91 91 89 95 92 92 69 126
10 12 17 23 30 38 42 47 53 57 60 68 76 80 82 82 85 60 74 79 81 83 83 82 76 69 71 65 64 78 81 66 66 64 70 82 91 93 91 92 96 75 141
8 10 15 21 28 35 40 44 49 56 59 69 76 83 85 84 76 70 77 74 77 86 89 86 85 71 69 64 60 64 68 68 70 71 83 84 90 88 79 76 97 99 150
10 8 12 18 26 33 39 44 48 52 57 68 73 82 88 93 83 81 85 83 82 78 74 70 71 71 71 69 65 62 59 64 70 74 81 81 81 78 59 71 100 120 141
9 5 8 14 20 28 35 41 45 50 57 64 69 76 79 89 91 94 98 99 85 78 81 72 60 59 54 59 51 50 59 65 72 76 66 70 70 62 53 97 121 119 118
7 5 8 15 21 26 34 40 42 42 42 49 55 59 76 83 87 83 84 85 72 74 60 52 40 23 21 31 42 40 49 48 58 67 62 62 62 58 61 113 117 112 109
7 3 7 14 22 29 28 23 33 37 41 41 42 47 56 58 69 73 75 67 61 62 55 65 62 52 38 30 20 18 40 42 43 55 63 59 68 59 77 101 108 119 113
8 2 7 13 19 23 29 34 34 27 35 40 42 47 50 56 64 70 73 65 60 66 79 73 75 72 60 45 35 23 22 31 50 53 56 61 61 55 84 95 106 110 106
8 2 4 10 15 20 24 30 36 42 45 41 40 50 58 62 64 69 78 81 89 88 88 86 76 83 75 61 52 41 27 25 34 39 46 47 51 68 81 97 103 100 104
8 3 4 8 13 15 20 26 30 34 37 41 42 44 58 57 66 74 82 94 97 96 94 90 86 81 86 75 63 57 43 31 28 29 33 36 56 79 83 97 97 100 109
12 5 3 7 10 13 18 21 27 31 35 41 48 53 62 59 71 81 87 88 93 96 96 94 94 85 90 88 74 68 57 38 28 23 26 36 59 81 84 94 99 93 112
15 9 5 3 7 11 16 23 28 30 34 38 43 48 45 56 66 74 81 85 88 90 98 99 95 98 93 99 93 84 74 50 33 22 15 34 60 81 86 92 93 103 106
19 14 10 8 7 11 15 22 23 27 32 35 37 40 44 52 60 65 71 78 83 86 88 97 100 103 103 102 102 95 92 70 44 27 15 31 56 76 90 93 95 95 104
21 17 15 13 10 10 13 16 18 24 28 32 36 39 45 51 56 61 65 70 77 84 88 94 101 108 112 109 101 98 97 82 55 34 23 22 52 65 85 89 92 92 100
24 22 19 16 12 11 12 13 19 23 25 29 33 38 43 47 51 55 59 64 71 76 82 86 95 101 110 113 102 95 100 78 54 34 21 17 36 60 75 81 84 92 98
28 24 20 17 14 12 11 13 17 19 22 27 32 36 40 43 46 50 54 58 63 70 76 80 85 92 102 110 104 97 97 92 73 45 26 8 17 43 57 71 78 81 87
27 24 21 16 12 11 10 11 12 15 19 25 30 34 38 41 45 48 52 56 58 60 67 73 77 85 91 105 113 101 96 98 88 74 52 32 10 26 45 56 63 66 78
Wind_Direction_850mb
243 257 273 286 295 304 310 313 313 316 316 316 314 314 314 314 312 309 306 305 298 294 285 282 280 275 278 276 267 253 252 252 262 266 261 269 270 277 248 251 262 239 231
242 258 276 287 297 304 310 313 316 315 313 312 313 313 313 314 312 310 308 305 298 293 287 282 279 277 276 272 268 260 263 253 266 255 272 264 272 279 255 259 262 243 230
243 258 272 286 296 305 311 316 316 312 312 313 313 313 314 314 312 311 307 303 296 288 286 281 280 278 279 278 271 261 260 253 262 254 269 273 271 271 260 258 249 259 228
243 256 271 287 300 308 314 313 313 315 316 317 316 315 316 315 315 314 308 303 301 295 289 284 285 280 282 280 275 261 257 258 277 257 262 270 264 267 268 267 259 226 211
244 259 276 290 301 310 313 316 319 319 320 319 318 317 320 320 318 313 306 300 296 293 289 286 282 282 279 273 269 267 262 258 265 259 261 269 267 271 264 258 249 199 188
241 260 277 295 306 312 317 321 324 322 322 321 319 321 321 322 323 310 304 300 294 289 288 287 287 284 280 272 266 261 256 260 258 261 263 264 266 266 262 268 252 238 172
245 264 286 300 309 318 325 327 325 324 323 322 322 323 325 331 330 313 308 301 298 296 294 292 291 285 282 277 277 263 254 252 248 248 253 261 265 265 273 263 262 255 177
242 266 290 308 318 326 327 326 326 326 325 325 324 327 331 335 334 319 316 306 301 296 291 290 287 285 287 278 273 269 257 247 236 238 242 250 257 264 266 264 260 222 180
239 273 300 314 322 324 325 326 328 326 326 323 328 334 337 341 337 322 320 316 313 304 296 287 286 283 281 278 266 264 262 252 238 239 246 252 255 261 261 270 260 193 171
239 284 307 315 322 326 329 329 330 329 328 328 331 340 346 342 338 324 326 317 314 311 307 303 296 286 282 283 264 258 255 256 250 248 248 249 254 260 259 263 264 232 164
239 290 305 316 325 325 328 330 331 330 331 333 338 347 345 344 340 327 327 322 317 311 305 300 293 286 282 284 266 260 255 254 255 256 260 257 256 256 261 259 241 239 171
243 287 306 319 325 325 328 333 334 333 338 341 346 343 344 343 339 331 330 326 319 311 306 300 292 285 282 277 271 263 256 249 248 256 250 253 260 258 261 245 246 216 185
233 264 301 320 325 328 332 339 338 339 347 348 343 343 342 346 341 338 335 331 326 320 315 307 295 284 279 273 269 260 254 248 247 246 248 250 250 268 243 240 216 198 181
224 249 302 319 329 333 339 343 342 346 353 350 341 342 339 347 340 343 339 337 336 336 327 321 308 277 277 276 266 261 247 241 247 253 246 252 260 259 256 207 192 182 176
200 257 312 333 344 350 349 347 350 354 356 340 342 342 347 343 344 341 341 340 341 340 339 1 8 1 318 295 282 263 245 260 244 238 243 256 266 255 231 184 183 176 173
201 258 329 347 352 352 355 8 355 358 358 356 348 347 350 344 347 350 350 351 355 353 9 13 8 8 2 344 313 260 253 258 256 248 250 258 261 256 197 181 177 175 174
188 224 346 360 360 359 355 358 8 18 7 3 0 6 1 355 359 1 3 13 14 15 21 18 5 6 4 358 347 317 267 230 244 251 246 253 253 238 189 178 178 177 179
189 224 1 3 7 9 3 7 8 8 8 13 15 27 22 16 16 15 18 22 28 30 24 15 6 3 2 1 354 342 315 273 244 239 260 262 238 215 188 182 182 179 179
184 139 34 16 21 15 13 14 12 13 12 12 16 23 31 20 26 29 29 29 28 27 24 16 14 4 5 4 1 354 343 319 288 269 254 247 222 206 196 190 185 181 179
168 143 65 32 24 22 21 21 21 18 18 19 19 22 22 17 27 28 30 28 28 28 25 22 10 14 5 8 8 3 355 343 312 278 249 234 219 206 200 198 194 185 187
157 151 125 82 54 35 25 28 27 21 24 26 25 25 20 24 29 29 28 28 26 28 27 25 16 17 8 12 13 11 360 351 334 309 261 211 217 208 205 200 193 189 189
157 157 146 119 81 53 36 35 29 25 25 27 31 29 28 29 31 31 31 28 26 27 29 27 23 21 19 15 17 15 0 357 349 327 283 212 201 213 209 205 197 193 196
162 160 154 140 117 86 61 51 40 35 32 28 28 29 29 31 31 31 29 29 27 24 27 29 28 28 26 21 21 21 5 1 354 335 309 239 202 204 205 204 201 197 198
166 163 156 143 130 105 79 65 55 45 38 35 33 31 32 31 30 29 27 29 29 27 24 27 30 29 28 22 22 23 18 10 9 356 329 279 225 203 212 211 207 204 200
168 163 156 150 140 118 101 77 63 51 41 38 38 34 32 31 29 27 26 25 26 26 25 23 25 27 29 21 23 24 27 23 23 19 15 346 214 206 207 212 213 208 208
164 161 158 151 136 121 98 77 64 52 45 37 33 30 28 28 27 24 23 23 21 23 24 23 23 24 27 26 19 23 28 30 28 33 33 36 76 176 196 207 209 210 209